Palm Springs, CA

5:44 PM PST on February 09, 2016 (GMT -0800)
Palm Springs International

Weather History for KPSP - August, 2013

Change the Weather History Date:

Thursday, August 8, 2013

  Actual Average Record
Temperature  
Mean Temperature 89 °F 92 °F  
Max Temperature 105 °F 107 °F 121 °F (1928)
Min Temperature 73 °F 78 °F 60 °F (1957)
Degree Days  
Heating Degree Days 0 0  
Month to date heating degree days 0 0  
Since 1 June heating degree days 0 0  
Since 1 July heating degree days 0 0  
Cooling Degree Days 24 27  
Month to date cooling degree days 198 221  
Year to date cooling degree days 2875 2473  
Since 1 June cooling degree days 1833 1714  
Growing Degree Days 38 (Base 50)    
Moisture  
Dew Point 37 °F    
Average Humidity 24    
Maximum Humidity 41    
Minimum Humidity 6    
Precipitation  
Precipitation 0.00 in 0.01 in 0.14 in (1983)
Month to date precipitation 0.00 0.09  
Year to date precipitation 1.91 3.28  
Since 1 July precipitation 0.94  
Snow  
Snow 0.00 in - - ()
Month to date snowfall 0.0  
Year to date snowfall 0.0  
Snow Depth 0.00 in    
Sea Level Pressure  
Sea Level Pressure 29.80 in    
Wind  
Wind Speed 5 mph (NNW)    
Max Wind Speed 26 mph    
Max Gust Speed 32 mph    
Visibility 7 miles    
Events      
T = Trace of Precipitation, MM = Missing Value Source: NWS Daily Summary

Daily Weather History Graph

Daily Weather History Graph

Search for Another Location

Airport or City:

Trip Planner

Search our weather history database for the weather conditions in past years. The results will help you decide how hot, cold, wet, or windy it might be!

Date:

Astronomy

Aug. 08, 2013 Rise Set
Actual Time 6:03 AM PDT 7:39 PM PDT
Civil Twilight 5:36 AM PDT 8:06 PM PDT
Nautical Twilight 5:04 AM PDT 8:38 PM PDT
Astronomical Twilight 4:30 AM PDT 9:12 PM PDT
Moon 7:46 AM PDT (8/8) 8:30 PM PDT (8/8)
Length of Visible Light 14h 30m
Length of Day
13h 36m
Waxing Crescent, 3% of the Moon is Illuminated
Aug 8
Waxing Crescent
Aug 14
First Quarter
Aug 20
Full
Aug 28
Last Quarter
Sep 5
New

Hourly Weather History & Observations

Time (PDT) Temp. Dew Point Humidity Pressure Visibility Wind Dir Wind Speed Gust Speed Precip Events Conditions
12:53 AM 82.0 °F 42.1 °F 24% 29.82 in 8.0 mi SE 4.6 mph - N/A   Smoke
1:53 AM 81.0 °F 45.0 °F 28% 29.81 in 9.0 mi Calm Calm - N/A   Smoke
2:53 AM 79.0 °F 46.0 °F 31% 29.81 in 8.0 mi Calm Calm - N/A   Smoke
3:53 AM 79.0 °F 46.0 °F 31% 29.81 in 8.0 mi Calm Calm - N/A   Smoke
4:53 AM 77.0 °F 46.9 °F 34% 29.81 in 8.0 mi Calm Calm - N/A   Smoke
5:53 AM 73.9 °F 48.9 °F 41% 29.82 in 8.0 mi Calm Calm - N/A   Smoke
6:53 AM 77.0 °F 48.0 °F 36% 29.83 in 6.0 mi Calm Calm - N/A   Haze
7:53 AM 82.0 °F 42.1 °F 24% 29.84 in 7.0 mi Calm Calm - N/A   Smoke
8:53 AM 87.1 °F 37.0 °F 17% 29.85 in 8.0 mi Calm Calm - N/A   Smoke
9:53 AM 91.9 °F 36.0 °F 14% 29.85 in 9.0 mi SW 3.5 mph - N/A   Smoke
10:53 AM 97.0 °F 28.9 °F 9% 29.84 in 10.0 mi South 4.6 mph - N/A   Smoke
11:53 AM 100.9 °F 25.0 °F 7% 29.83 in 7.0 mi North 10.4 mph - N/A   Smoke
12:53 PM 100.9 °F 21.9 °F 6% 29.81 in 3.0 mi NNW 12.7 mph 21.9 mph N/A   Haze
1:53 PM 104.0 °F 26.1 °F 6% 29.80 in 6.0 mi North 13.8 mph - N/A   Haze
2:53 PM 104.0 °F 27.0 °F 7% 29.78 in 4.0 mi NNW 15.0 mph 24.2 mph N/A   Haze
3:53 PM 102.9 °F 27.0 °F 7% 29.76 in 10.0 mi NNW 13.8 mph 19.6 mph N/A   Smoke
4:53 PM 102.0 °F 28.9 °F 8% 29.75 in 10.0 mi NNE 9.2 mph - N/A   Smoke
5:53 PM 100.9 °F 28.9 °F 8% 29.75 in 10.0 mi North 10.4 mph 19.6 mph N/A   Smoke
6:53 PM 97.0 °F 37.0 °F 12% 29.75 in 10.0 mi NNW 11.5 mph 24.2 mph N/A   Smoke
7:53 PM 93.0 °F 39.9 °F 16% 29.74 in 5.0 mi NW 15.0 mph 26.5 mph N/A   Haze
8:14 PM 93.2 °F 37.4 °F 14% 29.76 in 3.0 mi NW 12.7 mph 19.6 mph N/A   Haze
8:53 PM 91.0 °F 35.1 °F 14% 29.76 in 4.0 mi NW 13.8 mph 18.4 mph N/A   Haze
9:53 PM 90.0 °F 37.0 °F 15% 29.78 in 8.0 mi WNW 5.8 mph - N/A   Smoke
10:53 PM 86.0 °F 39.9 °F 20% 29.78 in 8.0 mi WSW 5.8 mph - N/A   Smoke
11:53 PM 84.0 °F 39.0 °F 20% 29.79 in 7.0 mi SE 3.5 mph - N/A   Smoke